Tracking 30995 objects as of 5-Jul-2025
HD Live streaming from Space Station
objects crossing your sky now

CZ-6A DEB

Track CZ-6A DEB now!
10-day predictions


NORAD ID: 54341
Int'l Code: 2022-151CL
Perigee: 791.2 km
Apogee: 856.4 km
Inclination: 98.8 °
Period: 101.2 minutes
Semi major axis: 7194 km
RCS: Unknown
Launch date: November 11, 2022
Source: People's Republic of China (PRC)
Launch site: Taiyaun Space Center, China (TSC)

Note: This is SATELLITE DEBRIS
Your satellite tracking list
PSLV DEB
Track 1 satellite(s)




NASA's NSSDC Master Catalog

Two Line Element Set (TLE):
1 54341U 22151CL  25185.90747475  .00000818  00000-0  38223-3 0  9990
2 54341  98.7842 201.4562 0045260 266.6189  92.9811 14.22570210136523
Source of the keplerian elements: AFSPC